Regional Weather Roundup
Issued by NWS

Home | Current Version | Previous Version | Graphics & Text | Print | Product List | Glossary On
Versions: 1 2 3 4 5 6 7 8 9 10 11 12 13 14 15 16 17 18 19 20 21 22 23 24 25 26 27 28 29 30 31 32 33 34 35 36 37 38 39 40 41 42 43 44 45 46 47 48 49 50
634
ASUS43 KOAX 100302
RWRNE

WEATHER ROUNDUP FOR NEBRASKA
NATIONAL WEATHER SERVICE OMAHA NE
900 PM CST TUE FEB 09 2016

NOTES: SATELLITE DATA IS BEING USED TO AUGMENT CLOUD COVER ABOVE
       12000 FEET.
       "FAIR" INDICATES FEW OR NO CLOUDS BELOW 12,000 FEET WITH NO
       SIGNIFICANT WEATHER AND/OR OBSTRUCTIONS TO VISIBILITY.

  * THESE STATIONS DO NOT REPORT WEATHER SUCH AS RAIN...SNOW OR FOG.

NEZ001>004-019>022-054>056-100400-
NEBRASKA PANHANDLE

CITY           SKY/WX    TMP DP  RH WIND       PRES   REMARKS
SCOTTSBLUFF    CLEAR     38  28  67 NW10      30.19S WCI  31
ALLIANCE       CLEAR     37  30  75 NW15      30.13F WCI  28
CHADRON        CLEAR     39  29  67 W13       30.12F WCI  31
KIMBALL        CLEAR     38  28  67 W15       30.22F WCI  29
SIDNEY         CLEAR     36  29  75 W12       30.18F WCI  28
$$

NEZ057>060-069>072-079>082-100400-
SOUTHWEST NEBRASKA

CITY           SKY/WX    TMP DP  RH WIND       PRES   REMARKS
NORTH PLATTE   CLOUDY    36  28  73 CALM      30.15F
IMPERIAL       CLEAR     38  30  73 W10       30.16F WCI  31
LEXINGTON      CLOUDY    32  24  73 S3        30.18S
MCCOOK         CLOUDY    33  27  78 SE6       30.18F WCI  28
$$

NEZ005>010-023>029-035>040-094-100400-
NORTH CENTRAL NEBRASKA

CITY           SKY/WX    TMP DP  RH WIND       PRES   REMARKS
VALENTINE      CLOUDY    34  28  79 SW6       30.10F WCI  29
AINSWORTH      CLOUDY    35  26  70 W5        30.10F WCI  31
BROKEN BOW     CLOUDY    29  24  82 CALM      30.14F
ORD            CLOUDY    27  18  69 CALM      30.15F
$$

NEZ041-046>049-061>064-073>077-083>087-100400-
SOUTH CENTRAL NEBRASKA

CITY           SKY/WX    TMP DP  RH WIND       PRES   REMARKS
GRAND ISLAND   CLOUDY    23  15  71 S8        30.21F WCI  14
HASTINGS       CLOUDY    23  13  65 S5        30.21F WCI  17
HEBRON         CLOUDY    22  15  75 SW5       30.26F WCI  15
YORK           CLOUDY    23  18  80 S5        30.22F WCI  17
$$

NEZ011>018-030>034-042>045-100400-
NORTHEAST NEBRASKA

CITY           SKY/WX    TMP DP  RH WIND       PRES   REMARKS
NORFOLK        CLOUDY    23  13  65 CALM      30.17F
BLAIR          CLOUDY    21  15  78 SW3       30.22F
COLUMBUS *     CLOUDY    21   9  58 CALM      30.22F
FREMONT        MOCLDY    19  13  77 CALM      30.24F
$$

NEZ050>053-065>068-078-088>093-100400-
SOUTHEAST NEBRASKA

CITY           SKY/WX    TMP DP  RH WIND       PRES   REMARKS
LINCOLN        CLEAR     23  13  65 W3        30.26F
OMAHA EPPLEY   CLOUDY    24  15  68 W7        30.25F WCI  16
BEATRICE       CLOUDY    23  16  72 W6        30.26F WCI  16
FALLS CITY     PTCLDY    19  11  70 W6        30.27S WCI  11
$$

NEZ044-045-051>053-067-100400-
OMAHA AREA

CITY           SKY/WX    TMP DP  RH WIND       PRES   REMARKS
OMAHA EPPLEY   CLOUDY    24  15  68 W7        30.25F WCI  16
BLAIR          CLOUDY    21  15  78 SW3       30.22F
FREMONT        MOCLDY    19  13  77 CALM      30.24F
OFFUTT AFB     CLOUDY    23  14  69 W7        30.25S WCI  14
$$




USA.gov is the U.S. government's official web portal to all federal, state and local government web resources and services.